This is the latest recevied weather packets stored in our database for station/object K1WJY. If no packets are shown the sender has not sent any weather packets the latest 10 day(s).
| Time | Temp. | Humidity | Pressure | Rain* | Wind** | Luminosity | Snow |
|---|---|---|---|---|---|---|---|
| 1777912146 | 13.33° C | 57% | 1007.3 hPa | 0 mm | - | 402 W/m² | - |
| 1777911841 | 12.78° C | 61% | 1007.5 hPa | 0 mm | - | 769 W/m² | - |
| 1777911539 | 12.78° C | 60% | 1007.7 hPa | 0 mm | - | 350 W/m² | - |
| 1777911235 | 12.78° C | 59% | 1007.7 hPa | 0 mm | - | 333 W/m² | - |
| 1777910932 | 13.33° C | 58% | 1007.8 hPa | 0 mm | - | 324 W/m² | - |
| 1777910629 | 13.89° C | 57% | 1007.9 hPa | 0 mm | - | 525 W/m² | - |
| 1777910326 | 13.89° C | 55% | 1007.8 hPa | 0 mm | - | 397 W/m² | - |
| 1777910023 | 13.33° C | 55% | 1008 hPa | 0 mm | - | 703 W/m² | - |
| 1777909720 | 13.89° C | 52% | 1008.1 hPa | 0 mm | - | 443 W/m² | - |
| 1777909417 | 13.89° C | 53% | 1008 hPa | 0 mm | - | 351 W/m² | - |
| 1777909115 | 13.89° C | 52% | 1008.1 hPa | 0 mm | - | 507 W/m² | - |
| 1777908813 | 13.89° C | 50% | 1008.2 hPa | 0 mm | - | 459 W/m² | - |
| 1777908509 | 14.44° C | 52% | 1008.2 hPa | 0 mm | - | 613 W/m² | - |
| 1777908206 | 13.89° C | 55% | 1008.1 hPa | 0 mm | - | 695 W/m² | - |
| 1777907902 | 13.89° C | 55% | 1008.2 hPa | 0 mm | - | 466 W/m² | - |
| 1777907598 | 13.89° C | 54% | 1008.2 hPa | 0 mm | - | 606 W/m² | - |
| 1777907294 | 13.89° C | 54% | 1008.6 hPa | 0 mm | - | 720 W/m² | - |
| 1777906991 | 13.89° C | 55% | 1008.6 hPa | 0 mm | - | 714 W/m² | - |
| 1777906689 | 15° C | 53% | 1008.8 hPa | 0 mm | - | 709 W/m² | - |
| 1777906384 | 14.44° C | 53% | 1008.5 hPa | 0 mm | - | 709 W/m² | - |
| 1777906081 | 14.44° C | 50% | 1008.9 hPa | 0 mm | - | 721 W/m² | - |
| 1777905777 | 14.44° C | 51% | 1008.8 hPa | 0 mm | - | 327 W/m² | - |
| 1777905475 | 14.44° C | 52% | 1008.8 hPa | 0 mm | - | 720 W/m² | - |
| 1777905172 | 14.44° C | 49% | 1008.8 hPa | 0 mm | - | 732 W/m² | - |
| 1777904869 | 13.89° C | 50% | 1008.7 hPa | 0 mm | - | 741 W/m² | - |
* Rain latest hour (hover to see other rain measurements)
** Current wind speed in m/s (hover to see current wind gust speed)